WZZ39PX EKCH-UKKK

Flight info

Callsign WZZ39PX
Flight time N/A
Altitude 37000
Route ROE DCT AMROR DCT ELPOL DCT MAPEX DCT EMGIP DCT AMUTO DCT POLON DCT SOMOX DCT TOLPA/K0830F370 DCT OKROT DCT LAPVA
Aircraft A320/M-SDE3FGHIRWY/LB1

Departure

Time 2026-05-04 20:03
Airport Copenhagen Kastrup Airport (EKCH)

Arrival

Time N/A
Airport Ihor Sikorsky Kyiv International Airport (Zhuliany) (UKKK)
Time Latitude Longitude Altitude Speed Heading
2026-05-04 19:31 55.62507 12.65468 17 ft 0 kts 23°
2026-05-04 19:48 55.62492 12.65457 17 ft 4 kts 19°
2026-05-04 19:49 55.62466 12.65446 17 ft 4 kts
2026-05-04 19:49 55.62443 12.65453 20 ft 4 kts 304°
2026-05-04 19:49 55.62440 12.65471 19 ft 1 kts 269°
2026-05-04 19:49 55.62440 12.65474 19 ft 0 kts 269°
2026-05-04 19:54 55.62440 12.65464 17 ft 3 kts 269°
2026-05-04 19:54 55.62438 12.65341 17 ft 12 kts 269°
2026-05-04 19:54 55.62390 12.65208 17 ft 16 kts 187°
2026-05-04 19:54 55.62306 12.65201 19 ft 18 kts 191°
2026-05-04 19:55 55.62288 12.65026 19 ft 17 kts 301°
2026-05-04 19:55 55.62347 12.64839 17 ft 17 kts 267°
2026-05-04 19:55 55.62311 12.64661 19 ft 12 kts 245°
2026-05-04 19:55 55.62293 12.64590 18 ft 0 kts 245°
2026-05-04 19:56 55.62292 12.64585 17 ft 0 kts 245°
2026-05-04 20:00 55.62286 12.64564 18 ft 5 kts 245°
2026-05-04 20:00 55.62258 12.64458 16 ft 14 kts 245°
2026-05-04 20:00 55.62170 12.64327 16 ft 19 kts 204°
2026-05-04 20:00 55.62075 12.64248 17 ft 15 kts 205°
2026-05-04 20:01 55.62007 12.64191 17 ft 11 kts 205°
2026-05-04 20:01 55.61933 12.64128 18 ft 13 kts 206°
2026-05-04 20:01 55.61851 12.64071 17 ft 13 kts 187°
2026-05-04 20:01 55.61776 12.64078 17 ft 5 kts 176°
2026-05-04 20:02 55.61735 12.64083 20 ft 7 kts 176°
2026-05-04 20:02 55.61670 12.64091 21 ft 11 kts 176°
2026-05-04 20:02 55.61603 12.64044 22 ft 6 kts 221°
2026-05-04 20:02 55.61550 12.63963 19 ft 15 kts 221°
2026-05-04 20:03 55.61415 12.63752 18 ft 49 kts 221°
2026-05-04 20:03 55.60989 12.63091 19 ft 112 kts 221°
2026-05-04 20:03 55.60277 12.61989 21 ft 159 kts 221°
2026-05-04 20:03 55.59465 12.60774 682 ft 147 kts 224°
2026-05-04 20:04 55.58685 12.59569 1236 ft 153 kts 225°
2026-05-04 20:04 55.57834 12.58242 1597 ft 174 kts 225°
2026-05-04 20:04 55.56870 12.56736 1884 ft 196 kts 224°
2026-05-04 20:04 55.55645 12.55396 2294 ft 219 kts 206°
2026-05-04 20:05 55.54146 12.54382 2685 ft 244 kts 201°
2026-05-04 20:05 55.52475 12.53410 3353 ft 259 kts 200°
2026-05-04 20:05 55.50748 12.52438 4340 ft 262 kts 200°
2026-05-04 20:05 55.49012 12.51447 5363 ft 263 kts 201°
2026-05-04 20:06 55.47267 12.50429 6364 ft 267 kts 201°
2026-05-04 20:06 55.45409 12.49883 6773 ft 276 kts 180°
2026-05-04 20:06 55.43550 12.50837 6918 ft 285 kts 153°
2026-05-04 20:06 55.42108 12.53261 7265 ft 295 kts 123°
2026-05-04 20:07 55.41328 12.56634 8191 ft 301 kts 109°
2026-05-04 20:07 55.40713 12.60133 9101 ft 305 kts 108°
2026-05-04 20:07 55.40093 12.63724 9971 ft 309 kts 108°
2026-05-04 20:07 55.39454 12.67455 10412 ft 330 kts 108°
2026-05-04 20:08 55.38768 12.71462 10699 ft 354 kts 108°
2026-05-04 20:08 55.38036 12.75735 10995 ft 376 kts 108°
2026-05-04 20:08 55.37274 12.80201 11642 ft 385 kts 108°
2026-05-04 20:08 55.36491 12.84755 12422 ft 391 kts 109°
2026-05-04 20:09 55.35700 12.89348 13209 ft 397 kts 109°
2026-05-04 20:09 55.34894 12.94023 13962 ft 402 kts 109°
2026-05-04 20:09 55.34077 12.98748 14689 ft 407 kts 109°